Year,Month,Day,Hour,Minute,Value (Times are PST for temperature in C)
2008,06,30,00,00,16.90
2008,06,30,00,01,16.70
2008,06,30,00,02,16.40
2008,06,30,00,03,16.10
2008,06,30,00,04,16.00
2008,06,30,00,05,15.80
2008,06,30,00,06,15.60
2008,06,30,00,07,15.50
2008,06,30,00,08,15.40
2008,06,30,00,09,15.30
2008,06,30,00,10,15.20
2008,06,30,00,11,15.10
2008,06,30,00,12,15.00
2008,06,30,00,13,15.00
2008,06,30,00,14,15.00
2008,06,30,00,15,15.00
2008,06,30,00,16,15.00
2008,06,30,00,17,15.00
2008,06,30,00,18,15.00
2008,06,30,00,19,15.00
2008,06,30,00,20,15.00
2008,06,30,00,21,15.00
2008,06,30,00,22,15.00
2008,06,30,00,23,15.00
2008,06,30,00,24,15.00
2008,06,30,00,25,15.00
2008,06,30,00,26,15.00
2008,06,30,00,27,15.00
2008,06,30,00,28,15.00
2008,06,30,00,29,15.00
2008,06,30,00,30,15.00
2008,06,30,00,31,15.00
2008,06,30,00,32,15.00
2008,06,30,00,33,15.00
2008,06,30,00,34,15.00
2008,06,30,00,35,15.00
2008,06,30,00,36,15.00
2008,06,30,00,37,15.00
2008,06,30,00,38,15.00
2008,06,30,00,39,15.00
2008,06,30,00,40,15.20
2008,06,30,00,41,15.30
2008,06,30,00,42,15.40
2008,06,30,00,43,15.50
2008,06,30,00,44,15.60
2008,06,30,00,45,15.70
2008,06,30,00,46,15.80
2008,06,30,00,47,15.90
2008,06,30,00,48,16.00
2008,06,30,00,49,16.10
2008,06,30,00,50,16.10
2008,06,30,00,51,16.20
2008,06,30,00,52,16.20
2008,06,30,00,53,16.20
2008,06,30,00,54,16.20
2008,06,30,00,55,16.20
2008,06,30,00,56,16.30
2008,06,30,00,57,16.30
2008,06,30,00,58,16.20
2008,06,30,00,59,16.20
2008,06,30,01,00,16.20
2008,06,30,01,01,16.20
2008,06,30,01,02,16.20
2008,06,30,01,03,16.20
2008,06,30,01,04,16.20
2008,06,30,01,05,16.20
2008,06,30,01,06,16.20
2008,06,30,01,07,16.20
2008,06,30,01,08,16.20
2008,06,30,01,09,16.20
2008,06,30,01,10,16.20
2008,06,30,01,11,16.20
2008,06,30,01,12,16.20
2008,06,30,01,13,16.30
2008,06,30,01,14,16.30
2008,06,30,01,15,16.30
2008,06,30,01,16,16.30
2008,06,30,01,17,16.20
2008,06,30,01,18,16.10
2008,06,30,01,19,16.00
2008,06,30,01,20,16.00
2008,06,30,01,21,15.90
2008,06,30,01,22,15.80
2008,06,30,01,23,15.80
2008,06,30,01,24,15.70
2008,06,30,01,25,15.70
2008,06,30,01,26,15.70
2008,06,30,01,27,15.70
2008,06,30,01,28,15.60
2008,06,30,01,29,15.60
2008,06,30,01,30,15.60
2008,06,30,01,31,15.60
2008,06,30,01,32,15.60
2008,06,30,01,33,15.50
2008,06,30,01,34,15.50
2008,06,30,01,35,15.60
2008,06,30,01,36,15.60
2008,06,30,01,37,15.60
2008,06,30,01,38,15.60
2008,06,30,01,39,15.60
2008,06,30,01,40,15.60
2008,06,30,01,41,15.60
2008,06,30,01,42,15.60
2008,06,30,01,43,15.60
2008,06,30,01,44,15.60
2008,06,30,01,45,15.60
2008,06,30,01,46,15.70
2008,06,30,01,47,15.70
2008,06,30,01,48,15.70
2008,06,30,01,49,15.70
2008,06,30,01,50,15.70
2008,06,30,01,51,15.70
2008,06,30,01,52,15.70
2008,06,30,01,53,15.70
2008,06,30,01,54,15.70
2008,06,30,01,55,15.80
2008,06,30,01,56,15.80
2008,06,30,01,57,15.80
2008,06,30,01,58,15.80
2008,06,30,01,59,15.90
2008,06,30,02,00,15.90
2008,06,30,02,01,15.90
2008,06,30,02,02,15.90
2008,06,30,02,03,15.90
2008,06,30,02,04,15.90
2008,06,30,02,05,15.90
2008,06,30,02,06,16.00
2008,06,30,02,07,16.00
2008,06,30,02,08,16.10
2008,06,30,02,09,16.20
2008,06,30,02,10,16.20
2008,06,30,02,11,16.30
2008,06,30,02,12,16.30
2008,06,30,02,13,16.30
2008,06,30,02,14,16.40
2008,06,30,02,15,16.40
2008,06,30,02,16,16.40
2008,06,30,02,17,16.40
2008,06,30,02,18,16.40
2008,06,30,02,19,16.50
2008,06,30,02,20,16.50
2008,06,30,02,21,16.50
2008,06,30,02,22,16.50
2008,06,30,02,23,16.60
2008,06,30,02,24,16.60
2008,06,30,02,25,16.60
2008,06,30,02,26,16.60
2008,06,30,02,27,16.60
2008,06,30,02,28,16.60
2008,06,30,02,29,16.50
2008,06,30,02,30,16.50
2008,06,30,02,31,16.50
2008,06,30,02,32,16.50
2008,06,30,02,33,16.50
2008,06,30,02,34,16.50
2008,06,30,02,35,16.50
2008,06,30,02,36,16.50
2008,06,30,02,37,16.50
2008,06,30,02,38,16.50
2008,06,30,02,39,16.50
2008,06,30,02,40,16.60
2008,06,30,02,41,16.60
2008,06,30,02,42,16.60
2008,06,30,02,43,16.60
2008,06,30,02,44,16.60
2008,06,30,02,45,16.60
2008,06,30,02,46,16.60
2008,06,30,02,47,16.60
2008,06,30,02,48,16.60
2008,06,30,02,49,16.60
2008,06,30,02,50,16.60
2008,06,30,02,51,16.60
2008,06,30,02,52,16.60
2008,06,30,02,53,16.60
2008,06,30,02,54,16.60
2008,06,30,02,55,16.60
2008,06,30,02,56,16.60
2008,06,30,02,57,16.60
2008,06,30,02,58,16.60
2008,06,30,02,59,16.60
2008,06,30,03,00,16.60
2008,06,30,03,01,16.60
2008,06,30,03,02,16.60
2008,06,30,03,03,16.60
2008,06,30,03,04,16.70
2008,06,30,03,05,16.70
2008,06,30,03,06,16.70
2008,06,30,03,07,16.70
2008,06,30,03,08,16.80
2008,06,30,03,09,16.80
2008,06,30,03,10,16.80
2008,06,30,03,11,16.80
2008,06,30,03,12,16.80
2008,06,30,03,13,16.80
2008,06,30,03,14,16.80
2008,06,30,03,15,16.80
2008,06,30,03,16,16.80
2008,06,30,03,17,16.80
2008,06,30,03,18,16.80
2008,06,30,03,19,16.80
2008,06,30,03,20,16.80
2008,06,30,03,21,16.80
2008,06,30,03,22,16.80
2008,06,30,03,23,16.80
2008,06,30,03,24,16.80
2008,06,30,03,25,16.80
2008,06,30,03,26,16.80
2008,06,30,03,27,16.80
2008,06,30,03,28,16.80
2008,06,30,03,29,16.80
2008,06,30,03,30,16.80
2008,06,30,03,31,16.80
2008,06,30,03,32,16.80
2008,06,30,03,33,16.80
2008,06,30,03,34,16.80
2008,06,30,03,35,16.80
2008,06,30,03,36,16.70
2008,06,30,03,37,16.70
2008,06,30,03,38,16.70
2008,06,30,03,39,16.70
2008,06,30,03,40,16.70
2008,06,30,03,41,16.70
2008,06,30,03,42,16.70
2008,06,30,03,43,16.70
2008,06,30,03,44,16.70
2008,06,30,03,45,16.70
2008,06,30,03,46,16.70
2008,06,30,03,47,16.70
2008,06,30,03,48,16.80
2008,06,30,03,49,16.80
2008,06,30,03,50,16.80
2008,06,30,03,51,16.80
2008,06,30,03,52,16.70
2008,06,30,03,53,16.70
2008,06,30,03,54,16.70
2008,06,30,03,55,16.70
2008,06,30,03,56,16.70
2008,06,30,03,57,16.70
2008,06,30,03,58,16.60
2008,06,30,03,59,16.60
2008,06,30,04,00,16.60
2008,06,30,04,01,16.60
2008,06,30,04,02,16.60
2008,06,30,04,03,16.60
2008,06,30,04,04,16.60
2008,06,30,04,05,16.60
2008,06,30,04,06,16.60
2008,06,30,04,07,16.70
2008,06,30,04,08,16.70
2008,06,30,04,09,16.70
2008,06,30,04,10,16.70
2008,06,30,04,11,16.70
2008,06,30,04,12,16.70
2008,06,30,04,13,16.70
2008,06,30,04,14,16.70
2008,06,30,04,15,16.70
2008,06,30,04,16,16.70
2008,06,30,04,17,16.80
2008,06,30,04,18,16.80
2008,06,30,04,19,16.80
2008,06,30,04,20,16.90
2008,06,30,04,21,17.00
2008,06,30,04,22,17.10
2008,06,30,04,23,17.20
2008,06,30,04,24,17.20
2008,06,30,04,25,17.30
2008,06,30,04,26,17.40
2008,06,30,04,27,17.40
2008,06,30,04,28,17.40
2008,06,30,04,29,17.40
2008,06,30,04,30,17.40
2008,06,30,04,31,17.40
2008,06,30,04,32,17.40
2008,06,30,04,33,17.40
2008,06,30,04,34,17.30
2008,06,30,04,35,17.30
2008,06,30,04,36,17.30
2008,06,30,04,37,17.30
2008,06,30,04,38,17.20
2008,06,30,04,39,17.20
2008,06,30,04,40,17.20
2008,06,30,04,41,17.20
2008,06,30,04,42,17.20
2008,06,30,04,43,17.20
2008,06,30,04,44,17.20
2008,06,30,04,45,17.20
2008,06,30,04,46,17.20
2008,06,30,04,47,17.20
2008,06,30,04,48,17.10
2008,06,30,04,49,17.10
2008,06,30,04,50,17.10
2008,06,30,04,51,17.10
2008,06,30,04,52,17.10
2008,06,30,04,53,17.10
2008,06,30,04,54,17.10
2008,06,30,04,55,17.00
2008,06,30,04,56,17.00
2008,06,30,04,57,17.00
2008,06,30,04,58,16.90
2008,06,30,04,59,16.90
2008,06,30,05,00,16.90
2008,06,30,05,01,16.90
2008,06,30,05,02,16.90
2008,06,30,05,03,16.90
2008,06,30,05,04,16.90
2008,06,30,05,05,16.80
2008,06,30,05,06,16.80
2008,06,30,05,07,16.80
2008,06,30,05,08,16.80
2008,06,30,05,09,16.80
2008,06,30,05,10,16.90
2008,06,30,05,11,16.90
2008,06,30,05,12,16.80
2008,06,30,05,13,16.80
2008,06,30,05,14,16.80
2008,06,30,05,15,16.80
2008,06,30,05,16,16.80
2008,06,30,05,17,16.80
2008,06,30,05,18,16.90
2008,06,30,05,19,16.90
2008,06,30,05,20,16.90
2008,06,30,05,21,16.90
2008,06,30,05,22,16.90
2008,06,30,05,23,16.90
2008,06,30,05,24,16.90
2008,06,30,05,25,16.80
2008,06,30,05,26,16.80
2008,06,30,05,27,16.80
2008,06,30,05,28,16.80
2008,06,30,05,29,16.80
2008,06,30,05,30,16.80
2008,06,30,05,31,16.80
2008,06,30,05,32,16.80
2008,06,30,05,33,16.80
2008,06,30,05,34,16.80
2008,06,30,05,35,16.90
2008,06,30,05,36,16.90
2008,06,30,05,37,16.90
2008,06,30,05,38,16.90
2008,06,30,05,39,16.90
2008,06,30,05,40,16.90
2008,06,30,05,41,16.90
2008,06,30,05,42,16.90
2008,06,30,05,43,16.90
2008,06,30,05,44,16.90
2008,06,30,05,45,16.90
2008,06,30,05,46,16.90
2008,06,30,05,47,16.90
2008,06,30,05,48,16.90
2008,06,30,05,49,16.90
2008,06,30,05,50,16.90
2008,06,30,05,51,16.90
2008,06,30,05,52,16.90
2008,06,30,05,53,16.90
2008,06,30,05,54,16.90
2008,06,30,05,55,16.90
2008,06,30,05,56,16.90
2008,06,30,05,57,16.90
2008,06,30,05,58,16.90
2008,06,30,05,59,16.90
2008,06,30,06,00,16.90
2008,06,30,06,01,16.90
2008,06,30,06,02,16.90
2008,06,30,06,03,17.00
2008,06,30,06,04,17.00
2008,06,30,06,05,17.00
2008,06,30,06,06,17.00
2008,06,30,06,07,17.10
2008,06,30,06,08,17.10
2008,06,30,06,09,17.10
2008,06,30,06,10,17.10
2008,06,30,06,11,17.10
2008,06,30,06,12,17.10
2008,06,30,06,13,17.20
2008,06,30,06,14,17.20
2008,06,30,06,15,17.30
2008,06,30,06,16,17.30
2008,06,30,06,17,17.30
2008,06,30,06,18,17.30
2008,06,30,06,19,17.40
2008,06,30,06,20,17.40
2008,06,30,06,21,17.40
2008,06,30,06,22,17.50
2008,06,30,06,23,17.50
2008,06,30,06,24,17.60
2008,06,30,06,25,17.60
2008,06,30,06,26,17.60
2008,06,30,06,27,17.60
2008,06,30,06,28,17.70
2008,06,30,06,29,17.70
2008,06,30,06,30,17.70
2008,06,30,06,31,17.80
2008,06,30,06,32,17.80
2008,06,30,06,33,17.80
2008,06,30,06,34,17.80
2008,06,30,06,35,17.90
2008,06,30,06,36,17.90
2008,06,30,06,37,17.90
2008,06,30,06,38,17.80
2008,06,30,06,39,17.80
2008,06,30,06,40,17.80
2008,06,30,06,41,17.80
2008,06,30,06,42,17.80
2008,06,30,06,43,17.80
2008,06,30,06,44,17.80
2008,06,30,06,45,17.80
2008,06,30,06,46,17.80
2008,06,30,06,47,17.80
2008,06,30,06,48,17.80
2008,06,30,06,49,17.90
2008,06,30,06,50,17.90
2008,06,30,06,51,17.90
2008,06,30,06,52,17.90
2008,06,30,06,53,18.00
2008,06,30,06,54,18.00
2008,06,30,06,55,18.10
2008,06,30,06,56,18.10
2008,06,30,06,57,18.10
2008,06,30,06,58,18.20
2008,06,30,06,59,18.20
2008,06,30,07,00,18.20
2008,06,30,07,01,18.20
2008,06,30,07,02,18.30
2008,06,30,07,03,18.30
2008,06,30,07,04,18.30
2008,06,30,07,05,18.20
2008,06,30,07,06,18.20
2008,06,30,07,07,18.20
2008,06,30,07,08,18.20
2008,06,30,07,09,18.20
2008,06,30,07,10,18.20
2008,06,30,07,11,18.20
2008,06,30,07,12,18.20
2008,06,30,07,13,18.20
2008,06,30,07,14,18.20
2008,06,30,07,15,18.30
2008,06,30,07,16,18.30
2008,06,30,07,17,18.30
2008,06,30,07,18,18.40
2008,06,30,07,19,18.40
2008,06,30,07,20,18.40
2008,06,30,07,21,18.40
2008,06,30,07,22,18.40
2008,06,30,07,23,18.50
2008,06,30,07,24,18.50
2008,06,30,07,25,18.50
2008,06,30,07,26,18.60
2008,06,30,07,27,18.60
2008,06,30,07,28,18.70
2008,06,30,07,29,18.70
2008,06,30,07,30,18.70
2008,06,30,07,31,18.70
2008,06,30,07,32,18.70
2008,06,30,07,33,18.70
2008,06,30,07,34,18.70
2008,06,30,07,35,18.70
2008,06,30,07,36,18.70
2008,06,30,07,37,18.70
2008,06,30,07,38,18.60
2008,06,30,07,39,18.60
2008,06,30,07,40,18.60
2008,06,30,07,41,18.60
2008,06,30,07,42,18.60
2008,06,30,07,43,18.60
2008,06,30,07,44,18.60
2008,06,30,07,45,18.70
2008,06,30,07,46,18.70
2008,06,30,07,47,18.80
2008,06,30,07,48,18.80
2008,06,30,07,49,18.80
2008,06,30,07,50,18.80
2008,06,30,07,51,18.90
2008,06,30,07,52,19.00
2008,06,30,07,53,19.00
2008,06,30,07,54,19.10
2008,06,30,07,55,19.10
2008,06,30,07,56,19.20
2008,06,30,07,57,19.20
2008,06,30,07,58,19.20
2008,06,30,07,59,19.20
2008,06,30,08,00,19.20
2008,06,30,08,01,19.10
2008,06,30,08,02,19.00
2008,06,30,08,03,18.90
2008,06,30,08,04,18.90
2008,06,30,08,05,18.80
2008,06,30,08,06,18.70
2008,06,30,08,07,18.60
2008,06,30,08,08,18.60
2008,06,30,08,09,18.40
2008,06,30,08,10,18.30
2008,06,30,08,11,18.20
2008,06,30,08,12,18.00
2008,06,30,08,13,17.80
2008,06,30,08,14,17.60
2008,06,30,08,15,17.30
2008,06,30,08,16,17.10
2008,06,30,08,17,16.90
2008,06,30,08,18,16.60
2008,06,30,08,19,16.50
2008,06,30,08,20,16.30
2008,06,30,08,21,16.20
2008,06,30,08,22,16.10
2008,06,30,08,23,16.00
2008,06,30,08,24,15.90
2008,06,30,08,25,15.90
2008,06,30,08,26,15.80
2008,06,30,08,27,15.80
2008,06,30,08,28,15.80
2008,06,30,08,29,15.80
2008,06,30,08,30,15.90
2008,06,30,08,31,15.90
2008,06,30,08,32,16.00
2008,06,30,08,33,16.00
2008,06,30,08,34,16.10
2008,06,30,08,35,16.10
2008,06,30,08,36,16.20
2008,06,30,08,37,16.20
2008,06,30,08,38,16.20
2008,06,30,08,39,16.20
2008,06,30,08,40,16.20
2008,06,30,08,41,16.20
2008,06,30,08,42,16.10
2008,06,30,08,43,16.10
2008,06,30,08,44,16.20
2008,06,30,08,45,16.10
2008,06,30,08,46,16.10
2008,06,30,08,47,16.10
2008,06,30,08,48,16.10
2008,06,30,08,49,16.10
2008,06,30,08,50,16.10
2008,06,30,08,51,16.00
2008,06,30,08,52,16.00
2008,06,30,08,53,15.90
2008,06,30,08,54,15.90
2008,06,30,08,55,15.80
2008,06,30,08,56,15.80
2008,06,30,08,57,15.80
2008,06,30,08,58,15.70
2008,06,30,08,59,15.70
2008,06,30,09,00,15.70
2008,06,30,09,01,15.70
2008,06,30,09,02,15.70
2008,06,30,09,03,15.80
2008,06,30,09,04,15.80
2008,06,30,09,05,15.90
2008,06,30,09,06,16.00
2008,06,30,09,07,16.20
2008,06,30,09,08,16.30
2008,06,30,09,09,16.40
2008,06,30,09,10,16.50
2008,06,30,09,11,16.60
2008,06,30,09,12,16.80
2008,06,30,09,13,16.90
2008,06,30,09,14,17.10
2008,06,30,09,15,17.30
2008,06,30,09,16,17.60
2008,06,30,09,17,17.80
2008,06,30,09,18,18.10
2008,06,30,09,19,18.40
2008,06,30,09,20,18.60
2008,06,30,09,21,18.90
2008,06,30,09,22,19.20
2008,06,30,09,23,19.40
2008,06,30,09,24,19.60
2008,06,30,09,25,19.70
2008,06,30,09,26,19.80
2008,06,30,09,27,19.90
2008,06,30,09,28,20.00
2008,06,30,09,29,20.10
2008,06,30,09,30,20.30
2008,06,30,09,31,20.40
2008,06,30,09,32,20.50
2008,06,30,09,33,20.60
2008,06,30,09,34,20.70
2008,06,30,09,35,20.70
2008,06,30,09,36,20.80
2008,06,30,09,37,20.90
2008,06,30,09,38,21.00
2008,06,30,09,39,21.10
2008,06,30,09,40,21.10
2008,06,30,09,41,21.10
2008,06,30,09,42,21.10
2008,06,30,09,43,21.10
2008,06,30,09,44,21.10
2008,06,30,09,45,21.20
2008,06,30,09,46,21.10
2008,06,30,09,47,21.00
2008,06,30,09,48,20.90
2008,06,30,09,49,20.80
2008,06,30,09,50,20.70
2008,06,30,09,51,20.70
2008,06,30,09,52,20.70
2008,06,30,09,53,20.80
2008,06,30,09,54,20.90
2008,06,30,09,55,21.00
2008,06,30,09,56,21.00
2008,06,30,09,57,21.10
2008,06,30,09,58,21.20
2008,06,30,09,59,21.40
2008,06,30,10,00,21.60
2008,06,30,10,01,21.80
2008,06,30,10,02,21.90
2008,06,30,10,03,22.00
2008,06,30,10,04,22.10
2008,06,30,10,05,22.20
2008,06,30,10,06,22.30
2008,06,30,10,07,22.30
2008,06,30,10,08,22.30
2008,06,30,10,09,22.30
2008,06,30,10,10,22.30
2008,06,30,10,11,22.30
2008,06,30,10,12,22.30
2008,06,30,10,13,22.30
2008,06,30,10,14,22.30
2008,06,30,10,15,22.40
2008,06,30,10,16,22.60
2008,06,30,10,17,22.60
2008,06,30,10,18,22.50
2008,06,30,10,19,22.30
2008,06,30,10,20,22.10
2008,06,30,10,21,21.90
2008,06,30,10,22,21.70
2008,06,30,10,23,21.60
2008,06,30,10,24,21.60
2008,06,30,10,25,21.60
2008,06,30,10,26,21.60
2008,06,30,10,27,21.70
2008,06,30,10,28,21.80
2008,06,30,10,29,21.90
2008,06,30,10,30,21.90
2008,06,30,10,31,22.00
2008,06,30,10,32,22.00
2008,06,30,10,33,22.10
2008,06,30,10,34,22.20
2008,06,30,10,35,22.20
2008,06,30,10,36,22.20
2008,06,30,10,37,22.20
2008,06,30,10,38,22.20
2008,06,30,10,39,22.20
2008,06,30,10,40,22.20
2008,06,30,10,41,22.20
2008,06,30,10,42,22.30
2008,06,30,10,43,22.30
2008,06,30,10,44,22.40
2008,06,30,10,45,22.40
2008,06,30,10,46,22.40
2008,06,30,10,47,22.40
2008,06,30,10,48,22.40
2008,06,30,10,49,22.50
2008,06,30,10,50,22.60
2008,06,30,10,51,22.70
2008,06,30,10,52,22.70
2008,06,30,10,53,22.70
2008,06,30,10,54,22.70
2008,06,30,10,55,22.70
2008,06,30,10,56,22.60
2008,06,30,10,57,22.60
2008,06,30,10,58,22.60
2008,06,30,10,59,22.70
2008,06,30,11,00,22.70
2008,06,30,11,01,22.70
2008,06,30,11,02,22.70
2008,06,30,11,03,22.70
2008,06,30,11,04,22.70
2008,06,30,11,05,22.70
2008,06,30,11,06,22.70
2008,06,30,11,07,22.70
2008,06,30,11,08,22.80
2008,06,30,11,09,22.90
2008,06,30,11,10,22.90
2008,06,30,11,11,22.80
2008,06,30,11,12,22.80
2008,06,30,11,13,22.80
2008,06,30,11,14,22.80
2008,06,30,11,15,22.80
2008,06,30,11,16,22.80
2008,06,30,11,17,22.90
2008,06,30,11,18,22.90
2008,06,30,11,19,22.90
2008,06,30,11,20,22.90
2008,06,30,11,21,22.90
2008,06,30,11,22,23.00
2008,06,30,11,23,23.20
2008,06,30,11,24,23.20
2008,06,30,11,25,23.30
2008,06,30,11,26,23.30
2008,06,30,11,27,23.40
2008,06,30,11,28,23.60
2008,06,30,11,29,23.80
2008,06,30,11,30,23.90
2008,06,30,11,31,23.90
2008,06,30,11,32,23.80
2008,06,30,11,33,23.90
2008,06,30,11,34,23.80
2008,06,30,11,35,23.70
2008,06,30,11,36,23.80
2008,06,30,11,37,23.80
2008,06,30,11,38,23.90
2008,06,30,11,39,24.00
2008,06,30,11,40,24.10
2008,06,30,11,41,24.10
2008,06,30,11,42,24.20
2008,06,30,11,43,24.20
2008,06,30,11,44,24.30
2008,06,30,11,45,24.30
2008,06,30,11,46,24.30
2008,06,30,11,47,24.40
2008,06,30,11,48,24.50
2008,06,30,11,49,24.60
2008,06,30,11,50,24.60
2008,06,30,11,51,24.60
2008,06,30,11,52,24.50
2008,06,30,11,53,24.50
2008,06,30,11,54,24.60
2008,06,30,11,55,24.60
2008,06,30,11,56,24.50
2008,06,30,11,57,24.50
2008,06,30,11,58,24.60
2008,06,30,11,59,24.60
2008,06,30,12,00,24.60
2008,06,30,12,01,24.50
2008,06,30,12,02,24.40
2008,06,30,12,03,24.40
2008,06,30,12,04,24.30
2008,06,30,12,05,24.30
2008,06,30,12,06,24.20
2008,06,30,12,07,24.20
2008,06,30,12,08,24.10
2008,06,30,12,09,23.90
2008,06,30,12,10,23.90
2008,06,30,12,11,23.80
2008,06,30,12,12,23.80
2008,06,30,12,13,23.90
2008,06,30,12,14,24.00
2008,06,30,12,15,24.00
2008,06,30,12,16,24.10
2008,06,30,12,17,24.20
2008,06,30,12,18,24.30
2008,06,30,12,19,24.50
2008,06,30,12,20,24.80
2008,06,30,12,21,25.00
2008,06,30,12,22,25.20
2008,06,30,12,23,25.30
2008,06,30,12,24,25.20
2008,06,30,12,25,25.10
2008,06,30,12,26,25.00
2008,06,30,12,27,24.90
2008,06,30,12,28,24.90
2008,06,30,12,29,24.90
2008,06,30,12,30,24.80
2008,06,30,12,31,24.80
2008,06,30,12,32,24.70
2008,06,30,12,33,24.70
2008,06,30,12,34,24.70
2008,06,30,12,35,24.80
2008,06,30,12,36,25.00
2008,06,30,12,37,25.10
2008,06,30,12,38,25.20
2008,06,30,12,39,25.30
2008,06,30,12,40,25.40
2008,06,30,12,41,25.50
2008,06,30,12,42,25.60
2008,06,30,12,43,25.70
2008,06,30,12,44,25.70
2008,06,30,12,45,25.60
2008,06,30,12,46,25.60
2008,06,30,12,47,25.60
2008,06,30,12,48,25.60
2008,06,30,12,49,25.70
2008,06,30,12,50,25.80
2008,06,30,12,51,25.90
2008,06,30,12,52,26.10
2008,06,30,12,53,26.30
2008,06,30,12,54,26.40
2008,06,30,12,55,26.50
2008,06,30,12,56,26.50
2008,06,30,12,57,26.50
2008,06,30,12,58,26.50
2008,06,30,12,59,26.40
2008,06,30,13,00,26.40
2008,06,30,13,01,26.50
2008,06,30,13,02,26.60
2008,06,30,13,03,26.60
2008,06,30,13,04,26.50
2008,06,30,13,05,26.40
2008,06,30,13,06,26.30
2008,06,30,13,07,26.30
2008,06,30,13,08,26.30
2008,06,30,13,09,26.30
2008,06,30,13,10,26.30
2008,06,30,13,11,26.30
2008,06,30,13,12,26.30
2008,06,30,13,13,26.40
2008,06,30,13,14,26.40
2008,06,30,13,15,26.40
2008,06,30,13,16,26.40
2008,06,30,13,17,26.30
2008,06,30,13,18,26.20
2008,06,30,13,19,26.10
2008,06,30,13,20,26.00
2008,06,30,13,21,25.90
2008,06,30,13,22,25.90
2008,06,30,13,23,25.80
2008,06,30,13,24,25.80
2008,06,30,13,25,25.80
2008,06,30,13,26,25.80
2008,06,30,13,27,25.80
2008,06,30,13,28,25.70
2008,06,30,13,29,25.70
2008,06,30,13,30,25.80
2008,06,30,13,31,25.90
2008,06,30,13,32,26.00
2008,06,30,13,33,26.10
2008,06,30,13,34,26.20
2008,06,30,13,35,26.40
2008,06,30,13,36,26.40
2008,06,30,13,37,26.50
2008,06,30,13,38,26.50
2008,06,30,13,39,26.50
2008,06,30,13,40,26.50
2008,06,30,13,41,26.50
2008,06,30,13,42,26.50
2008,06,30,13,43,26.50
2008,06,30,13,44,26.50
2008,06,30,13,45,26.50
2008,06,30,13,46,26.60
2008,06,30,13,47,26.70
2008,06,30,13,48,26.70
2008,06,30,13,49,26.70
2008,06,30,13,50,26.80
2008,06,30,13,51,26.80
2008,06,30,13,52,26.80
2008,06,30,13,53,26.80
2008,06,30,13,54,26.70
2008,06,30,13,55,26.70
2008,06,30,13,56,26.60
2008,06,30,13,57,26.50
2008,06,30,13,58,26.40
2008,06,30,13,59,26.30
2008,06,30,14,00,26.20
2008,06,30,14,01,26.10
2008,06,30,14,02,26.00
2008,06,30,14,03,25.90
2008,06,30,14,04,25.90
2008,06,30,14,05,25.90
2008,06,30,14,06,25.80
2008,06,30,14,07,25.80
2008,06,30,14,08,25.90
2008,06,30,14,09,25.90
2008,06,30,14,10,25.90
2008,06,30,14,11,25.90
2008,06,30,14,12,25.90
2008,06,30,14,13,25.90
2008,06,30,14,14,26.00
2008,06,30,14,15,26.10
2008,06,30,14,16,26.20
2008,06,30,14,17,26.30
2008,06,30,14,18,26.30
2008,06,30,14,19,26.40
2008,06,30,14,20,26.30
2008,06,30,14,21,26.30
2008,06,30,14,22,26.40
2008,06,30,14,23,26.50
2008,06,30,14,24,26.50
2008,06,30,14,25,26.50
2008,06,30,14,26,26.60
2008,06,30,14,27,26.70
2008,06,30,14,28,26.80
2008,06,30,14,29,27.00
2008,06,30,14,30,27.10
2008,06,30,14,31,27.20
2008,06,30,14,32,27.30
2008,06,30,14,33,27.30
2008,06,30,14,34,27.30
2008,06,30,14,35,27.40
2008,06,30,14,36,27.50
2008,06,30,14,37,27.40
2008,06,30,14,38,27.50
2008,06,30,14,39,27.50
2008,06,30,14,40,27.50
2008,06,30,14,41,27.60
2008,06,30,14,42,27.70
2008,06,30,14,43,27.80
2008,06,30,14,44,27.90
2008,06,30,14,45,27.90
2008,06,30,14,46,27.90
2008,06,30,14,47,27.90
2008,06,30,14,48,27.90
2008,06,30,14,49,27.90
2008,06,30,14,50,27.90
2008,06,30,14,51,27.80
2008,06,30,14,52,27.80
2008,06,30,14,53,27.80
2008,06,30,14,54,27.70
2008,06,30,14,55,27.60
2008,06,30,14,56,27.60
2008,06,30,14,57,27.60
2008,06,30,14,58,27.70
2008,06,30,14,59,27.70
2008,06,30,15,00,27.80
2008,06,30,15,01,27.90
2008,06,30,15,02,27.90
2008,06,30,15,03,28.00
2008,06,30,15,04,28.10
2008,06,30,15,05,28.10
2008,06,30,15,06,28.10
2008,06,30,15,07,28.10
2008,06,30,15,08,28.10
2008,06,30,15,09,28.00
2008,06,30,15,10,28.00
2008,06,30,15,11,28.10
2008,06,30,15,12,28.20
2008,06,30,15,13,28.30
2008,06,30,15,14,28.40
2008,06,30,15,15,28.40
2008,06,30,15,16,28.40
2008,06,30,15,17,28.40
2008,06,30,15,18,28.50
2008,06,30,15,19,28.50
2008,06,30,15,20,28.40
2008,06,30,15,21,28.30
2008,06,30,15,22,28.30
2008,06,30,15,23,28.30
2008,06,30,15,24,28.30
2008,06,30,15,25,28.30
2008,06,30,15,26,28.50
2008,06,30,15,27,28.60
2008,06,30,15,28,28.70
2008,06,30,15,29,28.90
2008,06,30,15,30,29.10
2008,06,30,15,31,29.10
2008,06,30,15,32,29.20
2008,06,30,15,33,29.30
2008,06,30,15,34,29.30
2008,06,30,15,35,29.30
2008,06,30,15,36,29.30
2008,06,30,15,37,29.20
2008,06,30,15,38,29.20
2008,06,30,15,39,29.10
2008,06,30,15,40,29.00
2008,06,30,15,41,28.90
2008,06,30,15,42,28.70
2008,06,30,15,43,28.60
2008,06,30,15,44,28.50
2008,06,30,15,45,28.40
2008,06,30,15,46,28.30
2008,06,30,15,47,28.20
2008,06,30,15,48,28.10
2008,06,30,15,49,27.90
2008,06,30,15,50,27.80
2008,06,30,15,51,27.70
2008,06,30,15,52,27.60
2008,06,30,15,53,27.70
2008,06,30,15,54,27.70
2008,06,30,15,55,27.50
2008,06,30,15,56,27.50
2008,06,30,15,57,27.40
2008,06,30,15,58,27.40
2008,06,30,15,59,27.40
2008,06,30,16,00,27.40
2008,06,30,16,01,27.50
2008,06,30,16,02,27.60
2008,06,30,16,03,27.70
2008,06,30,16,04,27.80
2008,06,30,16,05,27.80
2008,06,30,16,06,27.70
2008,06,30,16,07,27.70
2008,06,30,16,08,27.70
2008,06,30,16,09,27.70
2008,06,30,16,10,27.80
2008,06,30,16,11,27.80
2008,06,30,16,12,27.80
2008,06,30,16,13,27.80
2008,06,30,16,14,27.80
2008,06,30,16,15,27.80
2008,06,30,16,16,27.80
2008,06,30,16,17,27.80
2008,06,30,16,18,27.90
2008,06,30,16,19,27.90
2008,06,30,16,20,27.90
2008,06,30,16,21,27.90
2008,06,30,16,22,27.80
2008,06,30,16,23,27.80
2008,06,30,16,24,27.80
2008,06,30,16,25,27.80
2008,06,30,16,26,27.80
2008,06,30,16,27,27.80
2008,06,30,16,28,27.80
2008,06,30,16,29,27.60
2008,06,30,16,30,27.50
2008,06,30,16,31,27.30
2008,06,30,16,32,27.20
2008,06,30,16,33,27.20
2008,06,30,16,34,27.20
2008,06,30,16,35,27.10
2008,06,30,16,36,27.10
2008,06,30,16,37,27.10
2008,06,30,16,38,27.10
2008,06,30,16,39,27.10
2008,06,30,16,40,27.10
2008,06,30,16,41,27.10
2008,06,30,16,42,27.10
2008,06,30,16,43,27.20
2008,06,30,16,44,27.20
2008,06,30,16,45,27.20
2008,06,30,16,46,27.20
2008,06,30,16,47,27.20
2008,06,30,16,48,27.20
2008,06,30,16,49,27.30
2008,06,30,16,50,27.40
2008,06,30,16,51,27.30
2008,06,30,16,52,27.30
2008,06,30,16,53,27.20
2008,06,30,16,54,27.20
2008,06,30,16,55,27.20
2008,06,30,16,56,27.30
2008,06,30,16,57,27.30
2008,06,30,16,58,27.40
2008,06,30,16,59,27.50
2008,06,30,17,00,27.50
2008,06,30,17,01,27.60
2008,06,30,17,02,27.70
2008,06,30,17,03,27.80
2008,06,30,17,04,27.80
2008,06,30,17,05,27.80
2008,06,30,17,06,27.80
2008,06,30,17,07,27.70
2008,06,30,17,08,27.70
2008,06,30,17,09,27.70
2008,06,30,17,10,27.80
2008,06,30,17,11,27.80
2008,06,30,17,12,27.80
2008,06,30,17,13,27.80
2008,06,30,17,14,27.80
2008,06,30,17,15,27.80
2008,06,30,17,16,27.90
2008,06,30,17,17,27.90
2008,06,30,17,18,27.90
2008,06,30,17,19,27.90